Regional Weather Roundup
Issued by NWS

Home | Current Version | Previous Version | Graphics & Text | Print | Product List | Glossary On
Versions: 1 2 3 4 5 6 7 8 9 10 11 12 13 14 15 16 17 18 19 20 21 22 23 24 25 26 27 28 29 30 31 32 33 34 35 36 37 38 39 40 41 42 43 44 45 46 47 48 49 50
000
ASUS43 KMPX 032301
RWRMN
WEATHER ROUNDUP FOR MINNESOTA
NATIONAL WEATHER SERVICE TWIN CITIES/CHANHASSEN MN
500 PM CST TUE MAR 03 2015


NOTE: "FAIR" INDICATES FEW OR NO CLOUDS BELOW 12,000 FEET WITH NO
SIGNIFICANT WEATHER AND/OR OBSTRUCTIONS TO VISIBILITY. N/A MEANS
CURRENT SKY AND/OR WEATHER CONDITIONS ARE NOT AVAILABLE.

MNZ060>063-068>070-040000-
   Twin Cities Metro

CITY           SKY/WX    TMP DP  RH WIND       PRES   REMARKS
TWIN CITIES    PTCLDY    23  10  57 W22       29.78R WCI   8
ST PAUL        CLEAR     23   8  52 NW18G31   29.79R WCI   9
CRYSTAL        CLEAR     22   8  55 NW23      29.78R WCI   6
BLAINE         CLEAR     25  10  54 W22G28    29.76R WCI  10
LAKEVILLE      MOSUNNY   19  12  73 W21       29.78R WCI   3
EDEN PRAIRIE   MOSUNNY   21   9  59 W23G31    29.79R WCI   5
SOUTH ST PAUL  CLEAR     25   7  47 NW18G26   29.78R WCI  11
LAKE ELMO      FAIR      25  10  54 NW17G24   29.76R WCI  11
$$
MNZ001>005-007-008-013>017-022>024-027-028-040000-
   Northwest Minnesota

CITY           SKY/WX    TMP DP  RH WIND       PRES   REMARKS
BEMIDJI        LGT SNOW   7   1  77 W16       29.78R WCI -11
HALLOCK        CLOUDY     5  -2  72 NW23      29.88S WCI -17
ROSEAU         LGT SNOW   7   0  72 W20G29    29.79S VSB 3/4 WCI -13
WARROAD        PTCLDY     5  -6  61 NW13      29.78R WCI -12
THIEF RVR FALL PTSUNNY    3  -6  66 W18G28    29.86R WCI -17
CROOKSTON      SUNNY      9   0  66 NW23G30   29.92R WCI -12
FOSSTON        PTSUNNY    5  -2  72 NW18G26   29.86R HAZE    WCI -15
DETROIT LAKES  PTSUNNY   10   3  72 NW24      29.86R HAZE    WCI -10
MOORHEAD       MOSUNNY   10   1  67 NW25G35   29.94R WCI -10
PARK RAPIDS    MIX PCPN   8   0  69 NW23      29.79R WCI -13
MAHNOMEN       MOCLDY     7  -1  70 NW20      29.86R HAZE    WCI -13
$$
MNZ006-009>011-018-025>026-040000-
   North Central Minnesota

CITY           SKY/WX    TMP DP  RH WIND       PRES   REMARKS
BAUDETTE       MOCLDY     6  -7  54 NW18G28   29.73R WCI -13
FLAG ISLAND    PTCLDY     3  -8  60 NW25      29.73S WCI -20
INTL FALLS     CLEAR      9  -7  48 W22G32    29.69R WCI -11
WASKISH        PTCLDY     9  -2  61 W17       29.76R WCI -10
BIG FORK       PTCLDY    12  -2  52 W10G16    29.71R WCI  -1
LONGVILLE      CLEAR     12  -2  52 W15G25    29.76R WCI  -4
GRAND RAPIDS   MOCLDY    12   0  57 NW14      29.69S WCI  -3
CRANE LAKE     PTCLDY    12  -6  44 W9G20     29.67R WCI   0
ORR            MOCLDY    12  -2  52 W15G25    29.63R WCI  -4
COOK           MOCLDY    14   1  57 W21G29    29.65R HAZE    WCI  -4
WALKER         FAIR       9  -2  59 NW14G22   29.77R WCI  -7
$$
MNZ012-019>021-037-040000-
   Northeast Minnesota

CITY           SKY/WX    TMP DP  RH WIND       PRES   REMARKS
DULUTH         PTCLDY    19   3  49 NW24G32   29.61R WCI   2
ELY            CLEAR     14   0  52 NW16G29   29.59R WCI  -2
HIBBING        PTCLDY    14  -1  51 NW20G28   29.65R WCI  -3
EVELETH        MOCLDY    18   5  57 W21G28    29.64R WCI   1
DULUTH HARBOR  CLEAR     21   9  58 W25G32    29.68R WCI   4
TWO HARBORS    CLEAR     23   9  54 W9G24     29.59S WCI  13
SILVER BAY     FAIR      19   7  58 W14G22    29.57R WCI   6
GRAND MARAIS     N/A     21   8  57 W10G24    29.54R WCI  10
G MARAIS ARPRT PTCLDY    14   3  62 W9G26     29.46R WCI   2
$$
MNZ029>031-032-039>041-046>048-054>057-064-040000-
   West Central Minnesota

CITY           SKY/WX    TMP DP  RH WIND       PRES   REMARKS
FERGUS FALLS   SUNNY      9   0  66 NW28      29.93S WCI -13
WHEATON        MOSUNNY    9   1  72 NW21G35   29.96R WCI -11
MORRIS         PTSUNNY   12   3  67 NW24G32   29.90S HAZE    WCI  -8
ALEXANDRIA     PTSUNNY   10   0  63 NW23G35   29.84R WCI -10
ELBOW LAKE     PTSUNNY   10   3  73 NW18G32   29.90R HAZE    WCI  -9
WADENA         MOSUNNY    9  -2  61 W16G28    29.82R WCI  -9
GLENWOOD       MOSUNNY   10   3  72 W28G33    29.85R HAZE    WCI -11
APPLETON       MOSUNNY   14   7  73 NW20G30   29.95R WCI  -3
BENSON         MOSUNNY   10   3  72 N24G31    29.91R WCI -10
ORTONVILLE     MOSUNNY   12   1  62 NW20G25   29.94R WCI  -6
MADISON        PTSUNNY   14   3  62 NW23G30   29.95R HAZE    WCI  -5
WILLMAR        PTSUNNY   14   7  73 NW23G33   29.89R WCI  -5
$$
MNZ033>034-036-042>043-049>051-058-059-040000-
   Central Minnesota

CITY           SKY/WX    TMP DP  RH WIND       PRES   REMARKS
ST CLOUD       MOSUNNY   16   4  59 NW21G31   29.79R WCI  -1
SAUK CENTRE    FAIR      11   4  72 NW22      29.82S WCI  -8
PAYNESVILLE    MOSUNNY   11   3  70 W22G31    29.84R HAZE    WCI  -8
AITKIN         CLEAR     19   1  45 NW9       29.72R WCI   9
PINE RIVER     MOSUNNY   12   1  62 W15G21    29.81R WCI  -4
BRAINERD       SUNNY     15   1  53 NW15G28   29.76R WCI   0
STAPLES        MOSUNNY    9   1  72 NW18G25   29.80R WCI -10
LITTLE FALLS   SUNNY     14   3  62 NW13G25   29.80R WCI   0
LITCHFIELD     PTSUNNY   16   7  67 NW21G30   29.85R WCI  -2
BUFFALO        SUNNY     18   9  66 W18G25    29.83R WCI   2
MAPLE LAKE     MOSUNNY   18   9  68 W17G25    29.82R WCI   3
$$
MNZ037-044-045-052-053-040000-
   East Central Minnesota

CITY           SKY/WX    TMP DP  RH WIND       PRES   REMARKS
PRINCETON      FAIR      19   7  58 W21G30    29.77R HAZE    WCI   3
MORA           CLEAR     21   5  49 NW15G22   29.75R WCI   8
RUSH CITY      CLEAR     23   7  49 NW10G18   29.73R WCI  12
MOOSE LAKE     CLEAR     19   1  45 W17G26    29.68R WCI   4
HINCKLEY       FAIR      23   7  50 W16G22    29.71R WCI  10
CLOQUET        CLEAR     18   1  49 NW20G25   29.65R WCI   1
MCGREGOR       CLEAR     18   3  53 NW15G24   29.72R WCI   3
$$
MNZ071>073-080-081-089-090-097-098-040000-
   Southwest Minnesota

CITY           SKY/WX    TMP DP  RH WIND       PRES   REMARKS
MONTEVIDEO     PTSUNNY   16  12  86 N18G29    29.94R WCI  -1
GRANITE FALLS  PTSUNNY   13   5  69 NW25      29.96R WCI  -7
CANBY          PTSUNNY   13   5  68 NW18G30   29.97R WCI  -4
MARSHALL       MOSUNNY   12   1  62 NW24      29.96R WCI  -8
REDWOOD FALLS  PTSUNNY   15   5  64 NW21G30   29.92R WCI  -2
OLIVIA         PTSUNNY   14   9  79 NW22G32   29.90R HAZE    WCI  -4
PIPESTONE      MOSUNNY   12   7  79 NW16G26   29.94R HAZE    WCI  -4
WINDOM         LGT SNOW  16   9  73 W24G31    29.92R WCI  -3
WORTHINGTON    CLOUDY    14   5  67 NW24G31   29.94R WCI  -5
JACKSON        LGT SNOW  18   9  68 NW21G28   29.91R WCI   1
TRACY          MOSUNNY   16   8  70 NW24      29.93R WCI  -3
SLAYTON        MOSUNNY   13   6  71 NW21G26   29.93R WCI  -5
$$
MNZ065>067-074>077-082>085-091>093-040000-
   South Central Minnesota

CITY           SKY/WX    TMP DP  RH WIND       PRES   REMARKS
MANKATO        CLOUDY    18   9  68 NW24G37   29.86R WCI   0
NEW ULM        LGT SNOW  16   9  73 NW22G29   29.90R WCI  -2
ST JAMES       PTSUNNY   18   9  68 NW22G35   29.93R WCI   0
FAIRMONT       MOSUNNY   18   9  68 W26G32    29.88R WCI  -1
GLENCOE        PTSUNNY   18  11  74 W21G26    29.84R WCI   1
FARIBAULT      PTSUNNY   19  10  68 W23G30    29.82R WCI   2
OWATONNA       PTSUNNY   19  12  73 W23G31    29.81R WCI   2
ALBERT LEA     MOSUNNY   19  12  73 NW14G25   29.81R WCI   6
$$
MNZ078>079-086>088-094>096-040000-
   Southeast Minnesota

CITY           SKY/WX    TMP DP  RH WIND       PRES   REMARKS
ROCHESTER      CLOUDY    24  17  74 NW25      29.75R WCI   8
RED WING       PTCLDY    28  10  47 W14G23    29.75R WCI  17
STANTON        CLEAR     24  15  68 W18G26    29.78R WCI   9
DODGE CENTER   CLEAR     23  16  74 W17G25    29.76R WCI   9
WINONA         CLOUDY    32  23  69 NW13G23   29.74R WCI  22
AUSTIN         MOSUNNY   19  14  79 NW21G30   29.79R WCI   3
PRESTON        CLOUDY    24  20  83 NW22G29   29.74R WCI   9
$$
ABBREVIATIONS USED IN REMARKS
   TC - TEMPERATURES IN CELSIUS
  WCI - WIND CHILL INDEX
   HX - HEAT INDEX
  VSB - VISIBILITY
$$



USA.gov is the U.S. government's official web portal to all federal, state and local government web resources and services.